Weather in Patrovskaya

Russia / Arkhangel'skaya Oblast'     61°16′06″N   38°34′32″E
temp.,
°C
wind,
m/s
gust,
m/s
humid.,
%
clouds,
%
prec.,
mm/h
press.,
hPa
HPBL,
m
23 april, fri
fri2300:00+2s279323 0.0 1013126
03:00+1sse289712 0.0 1012154
06:00+2sse3109568 0.0 1012207
09:00+8sse5128188 0.0 1011479
12:00+12sse51071100 0.0 10101204
15:00+14sse5116085 0.4 10091844
18:00+11sse51274100 1.1 10091114
21:00+7sw2692100 1.5 1010182
24 april, sat
sat2400:00+5sw2692100 0.3 1011518
03:00+5sw1395100 2.1 1011583
06:00+4sse0197100 0.9 101090
09:00+5ene2797100 1.3 1008286
12:00+12se6137198 0.3 10051504
15:00+13se61267100 1.4 10041457
18:00+10se51175100 1.5 1003837
21:00+8ese51485100 2.7 10031209
25 april, sun
sun2500:00+7ese398699 0.1 1003462
03:00+5e31090100 0.1 1002530
06:00+6e3989100 0.0 1002556
09:00+5ene3794100 0.6 1001830
12:00+5ene3696100 2.2 1001761
15:00+5ne3797100 3.3 1001502
18:00+5ne2697100 0.4 1001441
21:00+4ne2698100 0.8 1001269
26 april, mon
mon2600:00+4nne2498100 1.1 1001188
03:00+4nne2499100 1.9 1001403
06:00+4nne2398100 0.9 1001612
09:00+4ne1298100 1.8 1001587
12:00+4nne1196100 0.8 1002601
15:00+4wsw1197100 2.2 1002691
18:00+2wsw3598100 1.7 1003361
21:00+1wsw3698100 3.2 1003287
27 april, tue
tue2700:00+1sw3698100 1.8 1002280
03:000sw2698100 4.1 1002277
06:000sw2699100 2.1 1001213
09:00+1sw2599100 3.6 1001192
12:00+1wsw24100100 1.1 1001279
15:00+2wnw2499100 2.8 1002527
18:00+1nw3798100 1.8 1002550
21:00+1nnw3898100 2.5 1003540